TimeMST,TemperatureF,Dew PointF,Humidity,Sea Level PressureIn,VisibilityMPH,Wind Direction,Wind SpeedMPH,Gust SpeedMPH,PrecipitationIn,Events,Conditions,WindDirDegrees,DateUTC
12:56 AM,30.0,19.0,64,30.30,10.0,SSW,5.8,-,N/A,,Clear,200,2012-11-20 07:56:00
1:56 AM,32.0,21.9,66,30.28,10.0,Calm,Calm,-,N/A,,Clear,0,2012-11-20 08:56:00
2:56 AM,30.9,21.0,67,30.28,10.0,East,5.8,-,N/A,,Clear,100,2012-11-20 09:56:00
3:56 AM,30.9,19.0,61,30.28,10.0,SE,4.6,-,N/A,,Clear,140,2012-11-20 10:56:00
4:56 AM,28.9,19.0,67,30.29,10.0,ESE,5.8,-,N/A,,Clear,110,2012-11-20 11:56:00
5:56 AM,30.9,21.0,67,30.30,10.0,SE,6.9,-,N/A,,Clear,140,2012-11-20 12:56:00
6:56 AM,30.0,19.9,66,30.35,10.0,ESE,8.1,-,N/A,,Clear,120,2012-11-20 13:56:00
7:56 AM,32.0,19.9,61,30.38,10.0,SE,8.1,-,N/A,,Clear,130,2012-11-20 14:56:00
8:56 AM,36.0,21.0,55,30.39,10.0,ESE,6.9,-,N/A,,Clear,110,2012-11-20 15:56:00
9:56 AM,43.0,21.9,43,30.34,10.0,East,4.6,-,N/A,,Clear,100,2012-11-20 16:56:00
10:56 AM,48.9,23.0,36,30.31,10.0,ESE,4.6,-,N/A,,Clear,120,2012-11-20 17:56:00
11:56 AM,55.0,23.0,29,30.26,10.0,East,3.5,-,N/A,,Clear,90,2012-11-20 18:56:00
12:56 PM,59.0,21.2,23,30.25,10.0,Variable,4.6,-,N/A,,Clear,0,2012-11-20 19:56:00
1:56 PM,62.1,19.9,20,30.16,10.0,ENE,8.1,-,N/A,,Clear,60,2012-11-20 20:56:00
2:56 PM,64.9,18.0,16,30.14,10.0,East,4.6,-,N/A,,Clear,90,2012-11-20 21:56:00
3:56 PM,64.9,15.1,15,30.12,10.0,ENE,5.8,-,N/A,,Clear,60,2012-11-20 22:56:00
4:56 PM,63.0,14.0,15,30.13,10.0,ENE,4.6,-,N/A,,Clear,70,2012-11-20 23:56:00
5:56 PM,53.1,14.0,21,30.16,10.0,Calm,Calm,-,N/A,,Clear,0,2012-11-21 00:56:00
6:56 PM,42.1,12.9,31,30.21,10.0,SW,3.5,-,N/A,,Clear,230,2012-11-21 01:56:00
7:56 PM,39.0,12.9,34,30.22,10.0,Calm,Calm,-,N/A,,Clear,0,2012-11-21 02:56:00
8:56 PM,39.9,15.1,36,30.22,10.0,SSW,5.8,-,N/A,,Clear,200,2012-11-21 03:56:00
9:56 PM,37.0,15.1,41,30.21,10.0,Calm,Calm,-,N/A,,Clear,0,2012-11-21 04:56:00
10:56 PM,35.1,15.1,44,30.20,10.0,Calm,Calm,-,N/A,,Clear,0,2012-11-21 05:56:00
11:56 PM,30.0,12.9,49,30.19,10.0,Calm,Calm,-,N/A,,Clear,0,2012-11-21 06:56:00